Change the Weather History Date:

Thursday, February 27, 2014

  Actual Average Record
Temperature  
Mean Temperature 60 °F -  
Max Temperature 64 °F 64 °F 77 °F (1992)
Min Temperature 55 °F 43 °F 26 °F (1962)
Degree Days  
Heating Degree Days 6    
Growing Degree Days 10 (Base 50)    
Moisture  
Dew Point 49 °F    
Average Humidity 69    
Maximum Humidity 82    
Minimum Humidity 49    
Precipitation  
Precipitation 0.00 in - - ()
Sea Level Pressure  
Sea Level Pressure 29.77 in    
Wind  
Wind Speed 7 mph (South)    
Max Wind Speed 15 mph    
Max Gust Speed 18 mph    
Visibility 10 miles    
Events Rain    
Averages and records for this station are not official NWS values.
T = Trace of Precipitation, MM = Missing Value Source: NWS Daily Summary

Daily Weather History Graph

Daily Weather History Graph

Search for Another Location

Airport or City:

Trip Planner

Search our weather history database for the weather conditions in past years. The results will help you decide how hot, cold, wet, or windy it might be!

Date:

Astronomy

Feb. 27, 2014 Rise Set
Actual Time 6:42 AM PST 6:00 PM PST
Civil Twilight 6:16 AM PST 6:27 PM PST
Nautical Twilight 5:46 AM PST 6:57 PM PST
Astronomical Twilight 5:16 AM PST 7:27 PM PST
Moon 5:17 AM PST (2/27) 4:34 PM PST (2/27)
Length of Visible Light 12h 10m
Length of Day
11h 18m
Waning Crescent, 3% of the Moon is Illuminated
Feb 27
Waning Crescent
Mar 1
New
Mar 8
First Quarter
Mar 16
Full
Mar 23
Last Quarter

Hourly Weather History & Observations

Time (PST) Temp. Dew Point Humidity Pressure Visibility Wind Dir Wind Speed Gust Speed Precip Events Conditions
12:15 AM 57.2 °F 48.2 °F 72% 29.78 in 10.0 mi WSW 9.2 mph 18.4 mph N/A   Scattered Clouds
12:35 AM 57.2 °F 48.2 °F 72% 29.79 in 10.0 mi WSW 11.5 mph 17.3 mph N/A   Mostly Cloudy
12:50 AM 57.2 °F 48.2 °F 72% 29.79 in 10.0 mi West 8.1 mph 17.3 mph N/A   Mostly Cloudy
1:15 AM 57.2 °F 48.2 °F 72% 29.80 in 10.0 mi Calm Calm - N/A   Mostly Cloudy
1:30 AM 57.2 °F 48.2 °F 72% 29.81 in 10.0 mi SW 5.8 mph - N/A   Mostly Cloudy
1:50 AM 57.2 °F 50.0 °F 77% 29.82 in 10.0 mi SW 5.8 mph - N/A   Mostly Cloudy
2:15 AM 57.2 °F 48.2 °F 72% 29.83 in 10.0 mi Calm Calm - N/A   Mostly Cloudy
2:35 AM 57.2 °F 48.2 °F 72% 29.82 in 10.0 mi SSW 3.5 mph - N/A   Overcast
2:50 AM 57.2 °F 48.2 °F 72% 29.82 in 8.0 mi Calm Calm - N/A Rain Light Rain
3:15 AM 57.2 °F 50.0 °F 77% 29.83 in 10.0 mi SW 9.2 mph - N/A   Overcast
3:30 AM 57.2 °F 48.2 °F 72% 29.82 in 10.0 mi Calm Calm - N/A   Overcast
3:50 AM 57.2 °F 48.2 °F 72% 29.84 in 10.0 mi West 9.2 mph - N/A   Overcast
4:15 AM 57.2 °F 48.2 °F 72% 29.84 in 10.0 mi South 4.6 mph - N/A   Overcast
4:35 AM 57.2 °F 48.2 °F 72% 29.85 in 10.0 mi SSW 9.2 mph - N/A   Overcast
4:50 AM 57.2 °F 48.2 °F 72% 29.85 in 10.0 mi SSW 8.1 mph - N/A   Overcast
5:15 AM 55.4 °F 48.2 °F 77% 29.85 in 10.0 mi SSW 4.6 mph - N/A   Overcast
5:35 AM 57.2 °F 50.0 °F 77% 29.86 in 9.0 mi SSW 4.6 mph - N/A Rain Light Rain
5:50 AM 55.4 °F 50.0 °F 82% 29.86 in 10.0 mi South 4.6 mph - N/A   Overcast
6:10 AM 55.4 °F 50.0 °F 82% 29.86 in 10.0 mi SSW 5.8 mph - N/A   Overcast
6:35 AM 57.2 °F 48.2 °F 72% 29.86 in 10.0 mi SW 10.4 mph 17.3 mph N/A   Overcast
6:55 AM 57.2 °F 48.2 °F 72% 29.87 in 8.0 mi WSW 6.9 mph - N/A   Overcast
7:48 AM 55.4 °F 50.0 °F 82% 29.89 in 5.0 mi South 5.8 mph - N/A Rain Light Rain
8:47 AM 55.4 °F 50.0 °F 82% 29.91 in 7.0 mi ESE 4.6 mph - N/A   Mostly Cloudy
9:51 AM 59.0 °F 50.0 °F 72% 29.91 in 10.0 mi SSW 5.8 mph - N/A   Mostly Cloudy
10:48 AM 59.0 °F 48.2 °F 67% 29.91 in 10.0 mi SSW 4.6 mph - N/A   Mostly Cloudy
11:58 AM 64.4 °F 46.4 °F 52% 29.91 in 10.0 mi South 9.2 mph - N/A   Mostly Cloudy
12:52 PM 64.4 °F 46.4 °F 52% 29.89 in 10.0 mi SSW 12.7 mph 17.3 mph N/A   Mostly Cloudy
1:53 PM 64.4 °F 48.2 °F 56% 29.87 in 10.0 mi ESE 8.1 mph 17.3 mph N/A   Mostly Cloudy
2:50 PM 64.4 °F 46.4 °F 52% 29.86 in 10.0 mi SSE 15.0 mph - N/A   Mostly Cloudy
3:50 PM 64.4 °F 44.6 °F 49% 29.82 in 10.0 mi SE 11.5 mph 17.3 mph N/A   Mostly Cloudy
4:59 PM 62.6 °F 48.2 °F 59% 29.75 in 10.0 mi SE 8.1 mph - N/A   Overcast
5:49 PM 59.0 °F 53.6 °F 82% 29.72 in 10.0 mi Calm Calm - N/A   Overcast
6:49 PM 59.0 °F 51.8 °F 77% 29.69 in 10.0 mi Calm Calm - N/A   Mostly Cloudy
7:47 PM 62.6 °F 48.2 °F 59% 29.67 in 10.0 mi ESE 11.5 mph - N/A   Overcast
8:47 PM 60.8 °F 46.4 °F 59% 29.64 in 10.0 mi SSE 4.6 mph - N/A   Overcast
9:10 PM 59.0 °F 50.0 °F 72% 29.63 in 10.0 mi Calm Calm - N/A   Mostly Cloudy
9:35 PM 57.2 °F 50.0 °F 77% 29.61 in 10.0 mi Calm Calm - N/A   Mostly Cloudy
9:55 PM 59.0 °F 48.2 °F 67% 29.60 in 10.0 mi SSE 5.8 mph - N/A   Mostly Cloudy
10:10 PM 59.0 °F 48.2 °F 67% 29.59 in 10.0 mi SE 9.2 mph - N/A   Overcast
10:35 PM 59.0 °F 48.2 °F 67% 29.57 in 10.0 mi ESE 5.8 mph - N/A   Scattered Clouds
10:55 PM 60.8 °F 48.2 °F 63% 29.56 in 10.0 mi ESE 5.8 mph - N/A   Mostly Cloudy
11:10 PM 60.8 °F 48.2 °F 63% 29.55 in 10.0 mi ESE 9.2 mph - N/A   Overcast
11:35 PM 60.8 °F 48.2 °F 63% 29.52 in 10.0 mi ESE 13.8 mph - N/A   Overcast
11:55 PM 60.8 °F 48.2 °F 63% 29.51 in 10.0 mi ESE 9.2 mph - N/A   Overcast